Location: Newark
(55.7681°N, 37.7103°E)
Time: 13:31:40
(UTC+00:00)

N. Korean satellite - Pass Details

Date: 26 October 2019
Orbit: 456 x 506 km, 97.2° (Epoch: 17 November)

Event Time Altitude Azimuth Distance (km) Brightness Sun altitude
Rises 02:11:37 0° 29° (NNE) 2,577 10.7 -18.8°
Reaches altitude 10° 02:14:48 10° 61° (ENE) 1,700 10.3 -18.3°
Maximum altitude 02:16:24 12° 86° (E) 1,557 10.3 -18.1°
Drops below altitude 10° 02:17:59 10° 112° (ESE) 1,704 10.3 -17.9°
Sets 02:21:11 0° 143° (SE) 2,590 10.7 -17.4°
